Meteo Giornale » Osservazioni meteo Stati Uniti (USA) » Grafton
ore: 16:55 - Osservazioni Meteo Grafton
Lat. 48° 24' N Lon. 97° 22' W Alt. 252 metri s.l.m.
26 °C
Poco Nuvoloso
Temp. 24 Ore
15 °C
28 °C
Ovest/Nord-Ovest
22.2 Km/h
Dew point 12 °C
Umidità 41 %
Visibilità 14 Km
Il sole sorge alle ore 06:47
Il sole tramonta alle ore 20:11
| Data e Ora | Cielo e Fenomeni | T °C | DP °C | Um. % | Pres. hPa | Vis. km | Vento km/h | |
|---|---|---|---|---|---|---|---|---|
| Oggi h: 16:55 | Poco Nuvoloso | 26 | 12 | 41 | 1012 | 14 | O/NO 22.2 | |
| Oggi h: 16:35 | Poco Nuvoloso | 27 | 14 | 44 | 1012 | 14 | O 16.7 | |
| Oggi h: 16:15 | Poco Nuvoloso | 27 | 14 | 44 | 1012 | 10 | O 16.7 | |
| Oggi h: 15:55 | Poco Nuvoloso | 26 | 14 | 47 | 1012 | 10 | O/SO 25.9 | |
| Oggi h: 15:35 | Poco Nuvoloso | 25 | 13 | 47 | 1012 | 14 | O 14.8 | |
| Oggi h: 15:15 | Nuvoloso | 26 | 14 | 47 | 1012 | 14 | O 22.2 | |
| Oggi h: 14:55 | Poco Nuvoloso | 26 | 14 | 47 | 1012 | 10 | O/NO 14.8 | |
| Oggi h: 14:35 | Poco Nuvoloso | 26 | 14 | 47 | 1012 | 14 | O 22.2 | |
| Oggi h: 14:15 | Sereno | 26 | 14 | 47 | 1012 | 14 | O/NO 24 | |
| Oggi h: 13:55 | Sereno | 26 | 13 | 44 | 1012 | 10 | NO 18.5 | |
| Oggi h: 13:35 | Sereno | 26 | 13 | 44 | 1012 | 14 | O/NO 24 | |
| Oggi h: 13:15 | Sereno | 25 | 13 | 47 | 1012 | 10 | O/NO 31.5 | |
| Oggi h: 12:55 | Sereno | 25 | 13 | 47 | 1012 | 10 | O/NO 29.6 | |
| Oggi h: 12:35 | Sereno | 25 | 13 | 47 | 1012 | 10 | O/NO 24 | |
| Oggi h: 12:15 | Sereno | 25 | 13 | 47 | 1012 | 10 | O/NO 31.5 | |
| Oggi h: 11:55 | Sereno | 24 | 13 | 50 | 1012 | 10 | O/NO 27.8 | |
| Oggi h: 11:35 | Sereno | 24 | 14 | 53 | 1012 | 14 | O/NO 29.6 | |
| Oggi h: 11:15 | Sereno | 23 | 14 | 56 | 1013 | 14 | O/NO 25.9 | |
| Oggi h: 10:55 | Sereno | 23 | 14 | 56 | 1012 | 14 | O 24 | |
| Oggi h: 10:35 | Sereno | 22 | 14 | 60 | 1012 | 10 | O/NO 29.6 | |
| Oggi h: 10:15 | Sereno | 22 | 14 | 60 | 1012 | 10 | O 29.6 | |
| Oggi h: 09:55 | Sereno | 21 | 14 | 64 | 1012 | 14 | O 27.8 | |
| Oggi h: 09:35 | Sereno | 20 | 14 | 68 | 1012 | 14 | O 25.9 | |
| Oggi h: 09:15 | Sereno | 19 | 14 | 72 | 1012 | 14 | O 24 | |
| Oggi h: 08:55 | Sereno | 19 | 14 | 72 | 1012 | 10 | O 25.9 | |
| Oggi h: 08:35 | Sereno | 18 | 14 | 77 | 1012 | 10 | O 24 | |
| Oggi h: 08:15 | Sereno | 17 | 14 | 82 | 1012 | 14 | O/SO 18.5 | |
| Oggi h: 07:55 | Sereno | 16 | 14 | 87 | 1012 | 10 | O/SO 18.5 | |
| Oggi h: 07:35 | Sereno | 15 | 14 | 93 | 1012 | 10 | SO 16.7 | |
| Oggi h: 07:15 | Sereno | 15 | 14 | 93 | 1012 | 14 | SO 13 | |
| Oggi h: 06:55 | Sereno | 15 | 14 | 93 | 1012 | 10 | SO 16.7 | |
| Oggi h: 06:35 | Sereno | 15 | 14 | 93 | 1011 | 10 | SO 14.8 | |
| Oggi h: 06:15 | Sereno | 15 | 14 | 93 | 1011 | 10 | SO 13 | |
| Oggi h: 05:55 | Sereno | 15 | 14 | 93 | 1011 | 10 | O/SO 16.7 | |
| Oggi h: 05:35 | Sereno | 15 | 14 | 93 | 1011 | 10 | O/SO 14.8 | |
| Oggi h: 05:15 | Sereno | 15 | 14 | 93 | 1011 | 10 | O 14.8 | |
| Oggi h: 04:55 | Sereno | 15 | 14 | 93 | 1011 | 10 | O/SO 16.7 | |
| Oggi h: 04:35 | Sereno | 15 | 14 | 93 | 1011 | 10 | O/SO 16.7 | |
| Oggi h: 04:15 | Sereno | 16 | 14 | 87 | 1011 | 10 | SO 16.7 | |
| Oggi h: 03:55 | Sereno | 17 | 13 | 77 | 1010 | 10 | O/SO 20.3 | |
| Oggi h: 03:35 | Sereno | 17 | 14 | 82 | 1010 | 10 | O/SO 22.2 | |
| Oggi h: 03:15 | Sereno | 16 | 14 | 87 | 1010 | 10 | O/SO 18.5 | |
| Oggi h: 02:55 | Sereno | 16 | 14 | 87 | 1010 | 10 | O/SO 18.5 | |
| Oggi h: 02:35 | Sereno | 17 | 14 | 82 | 1010 | 10 | SO 11.1 | |
| Oggi h: 02:15 | Sereno | 17 | 13 | 77 | 1010 | 10 | O/SO 20.3 | |
| Oggi h: 01:55 | Sereno | 17 | 14 | 82 | 1010 | 10 | SO 18.5 | |
| Oggi h: 01:35 | Sereno | 16 | 13 | 82 | 1010 | 10 | SO 14.8 | |
| Oggi h: 01:15 | Sereno | 15 | 13 | 87 | 1010 | 10 | S/SO 16.7 | |
| Oggi h: 00:55 | Sereno | 15 | 13 | 87 | 1010 | 10 | SO 14.8 | |
| Oggi h: 00:35 | Sereno | 16 | 13 | 82 | 1010 | 10 | SO 9.3 | |
| Oggi h: 00:15 | Sereno | 17 | 13 | 77 | 1010 | 10 | O/SO 13 | |
| Ieri h: 23:55 | Sereno | 18 | 13 | 72 | 1009 | 10 | O/SO 11.1 | |
| Ieri h: 23:35 | Sereno | 18 | 13 | 72 | 1009 | 10 | SO 16.7 | |
| Ieri h: 23:15 | Sereno | 19 | 14 | 72 | 1009 | 10 | O/SO 16.7 | |
| Ieri h: 22:55 | Sereno | 19 | 14 | 72 | 1009 | 10 | O/SO 18.5 | |
| Ieri h: 22:35 | Sereno | 20 | 14 | 68 | 1009 | 10 | O/SO 16.7 | |
| Ieri h: 22:15 | Sereno | 21 | 14 | 64 | 1009 | 10 | O/SO 18.5 | |
| Ieri h: 21:55 | Sereno | 22 | 14 | 60 | 1009 | 10 | O 27.8 | |
| Ieri h: 21:35 | Sereno | 22 | 14 | 60 | 1009 | 10 | O 24 | |
| Ieri h: 21:15 | Sereno | 23 | 13 | 53 | 1008 | 10 | O 27.8 | |
| Ieri h: 20:55 | Sereno | 24 | 14 | 53 | 1008 | 10 | O 24 | |
| Ieri h: 20:35 | Sereno | 24 | 13 | 50 | 1008 | 10 | O 27.8 | |
| Ieri h: 20:15 | Sereno | 25 | 12 | 44 | 1007 | 14 | O 29.6 | |
| Ieri h: 19:55 | Sereno | 26 | 11 | 39 | 1007 | 14 | SO 25.9 | |
| Ieri h: 19:35 | Sereno | 26 | 11 | 39 | 1006 | 10 | SO 27.8 | |
| Ieri h: 19:15 | Sereno | 27 | 10 | 34 | 1006 | 14 | SO 25.9 | |
| Ieri h: 18:55 | Sereno | 27 | 10 | 34 | 1006 | 14 | SO 27.8 | |
| Ieri h: 18:35 | Sereno | 27 | 10 | 34 | 1006 | 14 | SO 33.3 | |
| Ieri h: 18:15 | Sereno | 27 | 10 | 34 | 1006 | 10 | O/SO 44.4 | |
| Ieri h: 17:55 | Sereno | 28 | 10 | 32 | 1006 | 14 | SO 40.7 | |
| Ieri h: 17:35 | Sereno | 28 | 10 | 32 | 1006 | 14 | O/SO 44.4 | |



